Regional Weather Roundup
Issued by NWS Charleston, SC

Current Version | Previous Version | Graphics & Text | Print | Product List | Glossary On
Versions: 1 2 3 4 5 6 7 8 9 10 11 12 13 14 15 16 17 18 19 20 21 22 23 24 25 26 27 28 29 30 31 32 33 34 35 36 37 38 39 40 41 42 43 44 45 46 47 48 49 50
000 ASUS42 KCHS 080812 RWRCHS REGIONAL WEATHER ROUNDUP NATIONAL WEATHER SERVICE CHARLESTON SC 300 AM EST MON FEB 08 2016 NOTE: "FAIR" INDICATES FEW OR NO CLOUDS BELOW 12,000 FEET WITH NO SIGNIFICANT WEATHER AND/OR OBSTRUCTIONS TO VISIBILITY. NOT ALL STATIONS ARE QUALITY CONTROLLED BY THE NATIONAL WEATHER SERVICE. USE DATA WITH CAUTION...ESPECIALLY DEWPOINT OBSERVATIONS. NOTICE: OBSERVATIONS FOR THE SAVANNAH-HILTON HEAD INTERNATIONAL AIRPORT /KSAV/ HAVE BEEN TEMPORARILY REMOVED DUE TO AN ERRONEOUS TEMPERATURE SENSOR. THE OBSERVATION WILL BE REINTRODUCED ONCE REPAIRS ARE COMPLETE. SCZ027-030-031-034>040-042>050-080900- ...SOUTHEAST SOUTH CAROLINA... CITY SKY/WX TMP DP RH WIND PRES REMARKS N CHARLESTON CLEAR 37 29 72 CALM 29.91F WATERFRONT PRK N/A 40 32 73 W5 29.76F WCI 37 MOUNT PLEASANT FAIR 36 32 87 CALM 29.91F JOHNS ISLAND FAIR 36 32 87 W6 29.92F WCI 31 PINOPOLIS N/A 43 34 70 SW7 29.81F MONCKS CORNER FAIR 32 27 80 CALM 29.90S SUMMERVILLE NOT AVBL BEAUFORT MCAS CLEAR 35 30 82 W9 29.94F WCI 28 BEAUFORT ARPT FAIR 41 34 75 SW9 29.94S HILTON HEAD IS CLEAR 43 32 65 SW6 29.97R WALTERBORO SUNNY 34 32 93 SW3 29.93S ALLENDALE FAIR 34 32 93 CALM 29.92F ...SOUTHERN MIDLANDS AND PEE DEE... CITY SKY/WX TMP DP RH WIND PRES REMARKS GEORGETOWN NOT AVBL KINGSTREE NOT AVBL ORANGEBURG CLEAR 34 29 82 S3 29.90F BARNWELL FAIR 34 32 93 CALM 29.92F AIKEN FAIR 32 27 80 W5 29.94S WCI 27 MANNING FAIR 30 21 69 CALM 29.90S COLUMBIA CLEAR 32 26 78 CALM 29.90S SUMTER CLEAR 36 26 67 VRB3 29.87S FLORENCE CLEAR 33 26 75 W6 29.87F WCI 28 MYRTLE BEACH CLEAR 37 25 60 W8 29.88F WCI 31 N MYRTLE BEACH CLEAR 40 28 62 NW6 29.84F WCI 36 $$ GAZ063-065-086>088-099>101-113>116-118-119-134>141-150-080900- ...SOUTHEAST GEORGIA... CITY SKY/WX TMP DP RH WIND PRES REMARKS SAVANNAH ARPT CLEAR 37 29 72 W6 29.97R WCI 32 HUNTER AAF CLEAR 34 30 83 W7 29.94S WCI 28 FORT STEWART PTCLDY 38 30 74 W6 29.95F WCI 33 STATESBORO CLEAR 43 27 53 W5 29.96S SYLVANIA SUNNY 38 33 81 CALM 29.95F CLAXTON FAIR 39 33 78 SW5 29.97F WCI 36 ...CSRA...CENTRAL AND FAR SOUTHEAST GEORGIA... CITY SKY/WX TMP DP RH WIND PRES REMARKS THOMSON CLEAR 36 32 85 W5 29.97F WCI 32 AUGUSTA-BUSH CLEAR 39 26 59 W6 29.93F WCI 35 AUGUSTA-DANIEL CLEAR 44 23 43 VRB3 29.92F SWAINSBORO FAIR 34 30 86 W3 29.97F VIDALIA PTCLDY 41 30 65 W3 29.98F EASTMAN FAIR 42 29 61 CALM 30.00F HAZLEHURST FAIR 41 31 67 CALM 29.98F ALMA CLEAR 39 30 70 W5 29.99F WCI 36 WAYCROSS CLEAR 42 34 73 W5 30.00F JESUP FAIR 41 34 75 W3 29.99F BAXLEY FAIR 41 32 70 CALM 29.99F BRUNSWICK CLEAR 41 32 70 W6 30.00S SAINT SIMONS CLEAR 42 33 70 W7 29.98F $$ SCZ027-028-034-036>038-045-046-048>050-GAZ119-141-080900- ...LAKE AND SUPPLEMENTAL COASTAL OBSERVATIONS... STATION/POSITION TIME TEMP WIND PRES WAVE SWELL AIR SEA DIR/SP/G HT/PER HT/PER/DIR (UTC) (F) (DEG/KT/KT) (MB) (FT/S) (FT/S/D) WINYAH BAY 0645 41 280/ 7 1011.0 LAKE MURRAY 0700 40 CALM / 2 1012.2S ACE BASIN NERRS NOT AVBL FORT PULASKI 0700 44 53 260/ 6/ 7 1014.5F SAPELO ISLAND 0700 45 250/ 7 1015.0F $$ ANZ835-935-AMZ111-154-330-350-352-354-370-450-454-472-080900- ...C-MAN AND BUOY OBSERVATIONS... STATION/POSITION TIME TEMP WIND PRES WAVE SWELL AIR SEA DIR/SP/G HT/PER HT/PER/DIR (UTC) (F) (DEG/KT/KT) (MB) (FT/S) (FT/S/D) BUOY 41004 0750 53 66 320/ 17/ 21 1011.9F 7/ 8 3/ 8 BUOY 41008 0750 51 55 270/ 17/ 21 1014.8F 4/ 4 2/ 70/ 8 FOLLY BEACH CMAN 0800 39 260/ 5/ 6 1013.2F CAPERS NEARSHORE 0708 45 290/ 12/ 14 1012.1F FRIPP NEARSHORE 0700 49 280/ 10/ 10 1013.7F STATION/POSITION TIME TEMP WIND PRES WAVE SWELL AIR SEA DIR/SP/G HT/PER HT/PER/DIR (UTC) (F) (DEG/KT/KT) (MB) (FT/S) (FT/S/D) 5E ST. MARYS GA 0721 54 N/A 3/12 2/ 90/12 FRYING PAN BUOY 0700 49 61 310/ 25/ 31 1008.9R BUOY 41025 0750 47 71 340/ 31/ 39 1000.1R 16/13 13/ 90/13 CAPE LOOKOUT NC NOT AVBL BUOY 41002 0750 60 69 300/ 35/ 43 N/A 30/11 BUOY 41010 0720 62 73 1014.2F ST AUGUSTINE FL 0800 42 56 260/ 5/ 7 1017.5F $$

USA.gov is the U.S. government's official web portal to all federal, state and local government web resources and services.